Regional Weather Roundup
Issued by NWS

Home | Current Version | Previous Version | Graphics & Text | Print | Product List | Glossary On
Versions: 1 2 3 4 5 6 7 8 9 10 11 12 13 14 15 16 17 18 19 20 21 22 23 24 25 26 27 28 29 30 31 32 33 34 35 36 37 38 39 40 41 42 43 44 45 46 47 48 49 50
068
ASUS45 KBOU 211507
RWRCO

WEATHER ROUNDUP FOR COLORADO
NATIONAL WEATHER SERVICE DENVER/BOULDER CO
900 AM MDT SAT OCT 21 2017

NOTE: "FAIR" INDICATES FEW OR NO CLOUDS BELOW 12000 FEET WITH NO
SIGNIFICANT WEATHER AND/OR OBSTRUCTIONS TO VISIBILITY.

COZ001>005-013-030-031-211600-
...NORTHWEST COLORADO...

CITY           SKY/WX    TMP DP  RH WIND       PRES   REMARKS
CRAIG          FAIR      22  19  89 SE5       30.13R WCI  16
HAYDEN         CLOUDY    27  23  85 S3        30.14R
MEEKER         FAIR      29  25  85 CALM      30.14R
RABBIT EARS PA SNOW      18  14  86 W10G21    30.05R VSB 1/4 WCI   6
STEAMBOAT SPGS CLOUDY    28  23  82 CALM      30.11R
WALDEN         NOT AVBL
$$

COZ006>008-011-211600-
...WEST CENTRAL VALLEYS...

CITY           SKY/WX    TMP DP  RH WIND       PRES   REMARKS
GRAND JUNCTION FAIR      41  19  41 N6        30.12R
MONTROSE       FAIR      38  17  42 SE3       30.14R
EAGLE          FAIR      31  30  96 NE3       30.14R
RIFLE          FAIR      37  28  70 NE3       30.14R
DELTA          FAIR      45  16  30 W14G21    30.10R
NUCLA          FAIR      41  10  28 NW14      30.15R
$$

COZ017>023-064>068-211600-
...SOUTHWEST COLORADO...

CITY           SKY/WX    TMP DP  RH WIND       PRES   REMARKS
DURANGO        FAIR      44  18  35 W14       30.02R
CORTEZ         FAIR      42  13  30 CALM      30.10R
PAGOSA SPRINGS FAIR      44  21  39 SW9       30.02R
TELLURIDE      NOT AVBL
WOLF CREEK PAS FAIR      23  14  68 S15G22    30.13R WCI  10
$$

COZ009-010-012-014-032>034-037-058>063-211600-
...CENTRAL COLORADO...

CITY           SKY/WX    TMP DP  RH WIND       PRES   REMARKS
ASPEN          FAIR      29  22  75 NW5       30.10R WCI  24
BUENA VISTA    FAIR      37  12  36 CALM      29.99R
COPPER MTN     CLOUDY    18  12  79 MISG      30.03R
BERTHOUD PASS  CLOUDY     9  -2  61 NW37G46   29.92R WCI -16
COTTONWOOD PAS FAIR      32  14  47 W24G37    29.98R WCI  19
GUNNISON       PTSUNNY   35  13  40 W3        30.08R
KREMMLING      PTSUNNY   34  23  64 N8        30.11R WCI  27
LEADVILLE      CLOUDY    21  12  68 NW10G17   30.04R WCI  10
MONARCH PASS   CLOUDY    18  14  86 W21       30.13S WCI   1
SALIDA         FAIR      40  19  43 W15G24    30.06R
SUNLIGHT       CLOUDY    18  14  86 MISG      30.13R
WILKERSON PASS FAIR      21   5  49 NW6       30.02R WCI  14
$$

COZ069>075-211600-
...SAN LUIS VALLEY/SANGRE DE CRISTO MOUNTAINS...

CITY           SKY/WX    TMP DP  RH WIND       PRES   REMARKS
ALAMOSA        FAIR      41  21  44 N8        30.01R
DEL NORTE      FAIR      37  25  60 E3        30.02R
LA VETA PASS   FAIR      36  23  60 SW9G20    30.13R
SAGUACHE       FAIR      36  19  51 NW17G25   30.04R
$$

COZ035-036-038>040-211600-
...NORTHERN COLORADO FRONT RANGE...

CITY           SKY/WX    TMP DP  RH WIND       PRES   REMARKS
DENVER INTL AP FAIR      46  12  25 W18G26    29.97R
DMNS CITY PARK   N/A     45  10  24 W17G25    29.98R
AURORA         PTSUNNY   44  10  24 W22G31    29.98R
FRONT RANGE AP NOT AVBL
ERIE MUNI ARPT FAIR      46  11  23 W7        30.02R
BOULDER MUN AP FAIR      46   7  19 W24G39    29.94R
CENTENNIAL     PTSUNNY   45  12  26 NW12G18   29.97R
BROOMFIELD     MOSUNNY   45  10  24 W18       29.99R
FORT COLLINS   FAIR      45  15  30 NW32G46   29.95R
LONGMONT       FAIR      49  13  23 W9G20     30.00R
$$

COZ041-046-047-076>085-087-088-211600-
...PIKES PEAK/PALMER DIVIDE AND SOUTHERN FOOTHILLS...

CITY           SKY/WX    TMP DP  RH WIND       PRES   REMARKS
COLO. SPRINGS  FAIR      44  19  36 N28       29.94R
A. F. ACADEMY  FAIR      41  17  37 NE15      29.95R
SCHRIEVER AFB  FAIR      42  17  37 N15G25    29.94R
CHEYENNE MTN   FAIR      44  16  32 NE8       29.90R
ELLICOTT         N/A    N/A N/A N/A NE22G36   29.93R
FALCON         FAIR      40  15  37 N15G23    29.97R
FORT CARSON    FAIR      47  23  39 NE8       29.92R
LIMON          FAIR      42  25  50 N26G32    29.94R
MONUMENT HILL  FAIR      34  23  64 E3        30.00R
CANON CITY     FAIR      54  21  28 W14G20    29.90R
WALSENBURG     FAIR      52  30  43 N7        29.96R
TRINIDAD       FAIR      51  30  44 N7        29.92R
$$

COZ042>045-048>051-090-091-211600-
...NORTHEAST COLORADO...

CITY           SKY/WX    TMP DP  RH WIND       PRES   REMARKS
GREELEY ARPT   FAIR      46  16  30 NW26G38   29.95R
AKRON          FAIR      44  26  49 NW16      29.93R
BURLINGTON     FAIR      44  35  70 N23G35    29.89R
WRAY           FAIR      43  37  81 N12G23    29.89R
YUMA           NOT AVBL
STERLING       CLOUDY    46  23  39 NW20G26   29.91R
HOLYOKE        FAIR      45  36  70 N12       29.89R
FORT MORGAN    FAIR      46  17  30 W35G43    29.96R
$$

COZ086-089-092>099-211600-
...SOUTHEAST COLORADO...

CITY           SKY/WX    TMP DP  RH WIND       PRES   REMARKS
PUEBLO         FAIR      50  24  36 NE21G32   29.91R
LA JUNTA       FAIR      49  33  54 N12G23    29.92R
LAMAR          FAIR      49  33  54 N9        29.88R
SPRINGFIELD      N/A     51  31  46 N21G29    29.87R
$$




USA.gov is the U.S. government's official web portal to all federal, state and local government web resources and services.